Flag for U.S.A. Weather past 2 weeks in Fort Myers, Florida, U.S.A.

Now
89 °F

Sunny.


Feels Like: 99 °F
Forecast: 75 / 85 °F
Wind: 13 mph from Southwest

Location: Page Field

Current Time: Jul 30, 2015 at 2:19:56 PM

Latest Report: Jul 30, 2015 at 1:53 PM


Visibility: 10 mi

Pressure: 30.00 "Hg

Humidity: 63%

Dew point: 75 °F

Location of Fort MyersLocation

Historic Weather in Fort Myers — Graph

°F

Fort Myers temperature yesterday

Maximum temperature yesterday: 82 °F (at 12:53 AM)
Minimum temperature yesterday: 76 °F (at 4:00 AM)
Average temperature yesterday: 80 °F

Past Weeks' High & Low Weather Summary

 TemperatureHumidityPressure
High93 °F (Jul 23, 1:53 PM)100% (Jul 26, 2:53 PM)30.08 "Hg (Jul 26, 2:53 PM)
Low73 °F (Jul 15, 7:53 PM)50% (Jul 20, 3:53 PM)29.86 "Hg (Jul 26, 3:53 AM)
Average81 °F81%30.00 "Hg
* Reported Jul 15 12:53 PM — Jul 30 12:53 PM, Fort Myers, Weather by CustomWeather, © 2015

Note: Actual official high and low records may vary slightly from our data, if they occured in-between our weather recording intervals... More about our weather records

Advertising

Fort Myers weather history for previous 24 hours

 ConditionsComfort  
Time TempWeatherWind HumidityBarometerVisibility
12:53 PM
Thu, Jul 30
86 °FScattered clouds.9 mph70%30.03 "Hg10 mi
12:04 PM85 °FPassing clouds.7 mph77%30.03 "Hg10 mi
11:53 AM85 °FThundershowers. Scattered clouds.10 mph77%30.03 "Hg10 mi
10:53 AM84 °FPassing clouds.6 mph80%30.03 "Hg10 mi
9:53 AM82 °FSunny.5 mph82%30.03 "Hg10 mi
8:53 AM80 °FScattered clouds.5 mph85%30.02 "Hg10 mi
7:53 AM79 °FSunny.3 mph90%30.01 "Hg10 mi
6:53 AM77 °FPartly cloudy.No wind94%29.99 "Hg10 mi
5:53 AM77 °FClear.No wind94%29.98 "Hg10 mi
4:53 AM77 °FClear.No wind94%29.98 "Hg10 mi
3:53 AM78 °FClear.No wind93%29.99 "Hg10 mi
2:53 AM77 °FPassing clouds.No wind96%29.99 "Hg10 mi
1:53 AM77 °FClear.No wind96%30.00 "Hg10 mi
12:53 AM77 °FClear.No wind96%30.01 "Hg9 mi
11:53 PM
Wed, Jul 29
79 °FClear.No wind90%30.01 "Hg10 mi
10:53 PM80 °FClear.No wind90%30.00 "Hg10 mi
9:53 PM80 °FClear.6 mph87%30.00 "Hg10 mi
8:53 PM81 °FPassing clouds.6 mph85%29.99 "Hg10 mi
7:53 PM81 °FSunny.8 mph85%29.97 "Hg10 mi
6:53 PM81 °FSunny.9 mph82%29.96 "Hg10 mi
5:53 PM81 °FPassing clouds.7 mph82%29.97 "Hg10 mi
4:53 PM81 °FSunny.7 mph85%29.99 "Hg10 mi
3:53 PM79 °FBroken clouds.9 mph84%30.00 "Hg10 mi
2:53 PM80 °FMore clouds than sun.7 mph81%30.01 "Hg10 mi
Weather by CustomWeather, © 2015

See weather overviewHow to use our weather pages